^^
Station Historical Data
 
Daily Summary for November 01, 2014 Units:  English    Metric   Both
« Previous Day
Next Day »
Daily Weekly Monthly Yearly Custom
  Current: High: Low: Average:
Temperature: 36.3 °F 36.8 °F 35.9 °F 36.3 °F
Dew Point: 26.0 °F 26.0 °F 23.3 °F 24.5 °F
Humidity: 66% 66% 58% 62%
Wind Speed: 2.0mph 5.0mph 1.0mph 2.6mph
Wind Gust: 6.0mph 12.0mph - -
WindNNW - - NNW
Pressure: 30.39 in 30.39 in 30.35 in -
Precipitation: 0.00 in      
Historical Graphs
 
 
Tabular Data for November 01, 2014
Time Temperature Dew Point Pressure Wind Wind Speed Wind Gust Humidity Rainfall Rate (Hourly)
00:09 36.7 °F 23.3 °F 30.35 in North 2.0 mph 8.0 mph 58% 0.00 in
00:19 36.8 °F 23.4 °F 30.35 in NNW 5.0 mph 9.0 mph 58% 0.00 in
00:29 36.8 °F 23.4 °F 30.35 in NNW 5.0 mph 12.0 mph 58% 0.00 in
00:39 36.7 °F 23.7 °F 30.35 in NNW 3.0 mph 7.0 mph 59% 0.00 in
00:49 36.7 °F 23.7 °F 30.35 in NNW 5.0 mph 7.0 mph 59% 0.00 in
00:59 36.7 °F 23.7 °F 30.35 in NNW 5.0 mph 12.0 mph 59% 0.00 in
01:09 36.7 °F 23.7 °F 30.35 in NNW 2.0 mph 7.0 mph 59% 0.00 in
01:19 36.6 °F 23.6 °F 30.35 in NNW 3.0 mph 10.0 mph 59% 0.00 in
01:29 36.5 °F 23.5 °F 30.35 in NNW 5.0 mph 9.0 mph 59% 0.00 in
01:39 36.5 °F 23.9 °F 30.35 in NNW 3.0 mph 10.0 mph 60% 0.00 in
01:49 36.4 °F 23.8 °F 30.35 in NNW 2.0 mph 9.0 mph 60% 0.00 in
01:59 36.3 °F 24.2 °F 30.35 in NNW 3.0 mph 10.0 mph 61% 0.00 in
02:09 36.4 °F 24.2 °F 30.35 in NNW 2.0 mph 12.0 mph 61% 0.00 in
02:19 36.3 °F 24.1 °F 30.36 in NNW 1.0 mph 8.0 mph 61% 0.00 in
02:29 36.2 °F 24.0 °F 30.36 in NNW 2.0 mph 5.0 mph 61% 0.00 in
02:39 36.2 °F 24.0 °F 30.36 in NNW 3.0 mph 8.0 mph 61% 0.00 in
02:49 36.2 °F 24.0 °F 30.36 in NNW 3.0 mph 8.0 mph 61% 0.00 in
02:59 36.1 °F 24.3 °F 30.36 in North 1.0 mph 6.0 mph 62% 0.00 in
03:09 36.1 °F 24.3 °F 30.36 in NNW 2.0 mph 12.0 mph 62% 0.00 in
03:19 36.1 °F 24.4 °F 30.36 in NNW 3.0 mph 7.0 mph 62% 0.00 in
03:29 36.1 °F 24.7 °F 30.36 in NNW 2.0 mph 7.0 mph 63% 0.00 in
03:39 36.0 °F 24.6 °F 30.36 in NNW 3.0 mph 8.0 mph 63% 0.00 in
03:49 36.0 °F 25.0 °F 30.36 in NNW 2.0 mph 6.0 mph 64% 0.00 in
03:59 36.0 °F 25.0 °F 30.36 in NNW 2.0 mph 9.0 mph 64% 0.00 in
04:09 36.0 °F 25.0 °F 30.37 in NNW 2.0 mph 6.0 mph 64% 0.00 in
04:19 35.9 °F 25.3 °F 30.37 in NW 1.0 mph 8.0 mph 65% 0.00 in
04:29 36.0 °F 25.4 °F 30.37 in NNW 1.0 mph 8.0 mph 65% 0.00 in
04:39 36.1 °F 25.5 °F 30.38 in NNW 2.0 mph 4.0 mph 65% 0.00 in
04:49 36.2 °F 25.6 °F 30.38 in NW 2.0 mph 5.0 mph 65% 0.00 in
04:59 36.3 °F 25.7 °F 30.38 in NNW 2.0 mph 7.0 mph 65% 0.00 in
05:09 36.2 °F 25.6 °F 30.38 in NW 3.0 mph 10.0 mph 65% 0.00 in
05:19 36.3 °F 25.6 °F 30.39 in NNW 1.0 mph 5.0 mph 65% 0.00 in
05:29 36.3 °F 26.0 °F 30.39 in NW 2.0 mph 6.0 mph 66% 0.00 in
05:39 36.3 °F 26.0 °F 30.39 in NNW 2.0 mph 6.0 mph 66% 0.00 in
jolietwx - Weather
Compliments of Weather Underground